FENGYUN 1C DEB, 37435

Orbit data source: Space-Track

FENGYUN 1C DEB, 37435 is space debris in SSO originally from a launch on Mon, 10 May 1999 UTC launched from the Taiyaun Space Center, China (TSC). Fengyun 1C debris stems from the Chinese weather satellite Fengyun-1C, which was intentionally destroyed by a Chinese anti-satellite missile in 2007. This event dramatically increased the amount of space debris, with thousands of trackable fragments posing hazards to satellites and human spaceflight. The Fengyun 1C debris cloud has become a focal point in discussions about space sustainability and the need for international regulations to prevent the creation of new debris.

Loading next visibility...
Identifier
37435, 1999-025EHD
Orbit
SSO
Country
Flag of CNCN / PRC
Related business
Manufacturer
Unknown
Mission
Spacecraft
Bus & Motor
Unknown
Mass
Unknown
Launch date (UTC)
1999-05-10 (27 years ago)
Launch vehicle
Unknown
Launch site
Taiyaun Space Center, China (TSC)
Object type
Payload
Rocket body
Debris
Shape & HBR
Unknown shape, 0.1 m
Radar Cross Section
Small (<0.1 m²)

Expand to show TLE details & history
Last TLE update: 3 days ago

TLE from 3 days ago
0 FENGYUN 1C DEB
1 37435U 99025EHD 26205.34579635  .00001772  00000-0  79379-3 0  9999
2 37435  98.6284 242.3503 0042182  85.9895 274.6104 14.23302866921192
Epoch: 2026-07-24T08:17Z
TLE epoch observation values (Epoch: 2026-07-24T08:17:56.804Z)
Latitude
-0.00002°
Longitude
175.78986°
Altitude
814.814 km
Speed
7.447 km/s
True Right ascension
16h 09m 24s
True Declination
0° 00' 00"
Sunlit
Object was in daylight at epoch
Visualization orbit readout
Latitude
Unknown
Longitude
Unknown
Altitude
Unknown
Speed
Unknown
Apparent Right ascension
Unknown
Apparent Declination
Unknown
Sunlit
N/A
Visualization observer readout
Local Sidereal Time
22:26:32
Azimuth
Unknown
Elevation
Unknown
Doppler factor
Unknown
Orbital elements
Apogee altitude
841.681 km
Perigee altitude
781.028 km
Semi-major axis
7,189.492 km
Eccentricity
0.00422
Inclination
98.6284°
RAAN
242.3503°
Arg. of periapsis
85.9895°
True anomaly
274.1284°
Mean anomaly
274.6104°
Eccentric anomaly
274.36942°
Mean motion
3.56038 °/min
Orbital period
101.11 mins
BSTAR
0.00079379
Loading maneuver chart data...
Computing Atmospheric mass density...

Documentation

Showing up to 5 results
|